Lufkin, TX

6:00 PM CDT on July 27, 2017 (GMT -0500)
Angelina County

Weather History for KLFK - March, 2011

Change the Weather History Date:

Tuesday, March 29, 2011

  Actual Average Record
Temperature  
Mean Temperature 65 °F 62 °F  
Max Temperature 73 °F 75 °F 89 °F (1946)
Min Temperature 56 °F 51 °F 29 °F (1955)
Degree Days  
Heating Degree Days 0 5  
Month to date heating degree days 124 203  
Since 1 July heating degree days 1792 1837  
Cooling Degree Days 0 2  
Month to date cooling degree days 82 37  
Year to date cooling degree days 125 56  
Growing Degree Days 14 (Base 50)    
Moisture  
Dew Point 55 °F    
Average Humidity 80    
Maximum Humidity 93    
Minimum Humidity 67    
Precipitation  
Precipitation T in 0.11 in 3.25 in (1990)
Month to date precipitation 0.75 3.55  
Year to date precipitation 8.65 11.60  
Snow  
Snow 0.00 in - - ()
Month to date snowfall 0.0  
Since 1 July snowfall T  
Snow Depth 0.00 in    
Sea Level Pressure  
Sea Level Pressure 29.93 in    
Wind  
Wind Speed 6 mph (ENE)    
Max Wind Speed 14 mph    
Max Gust Speed 21 mph    
Visibility 9 miles    
Events Rain    
T = Trace of Precipitation, MM = Missing Value Source: NWS Daily Summary

Daily Weather History Graph

Daily Weather History Graph

Search for Another Location

Airport or City:

Trip Planner

Search our weather history database for the weather conditions in past years. The results will help you decide how hot, cold, wet, or windy it might be!

Date:

Astronomy

Mar. 29, 2011 Rise Set
Actual Time 7:11 AM CDT 7:36 PM CDT
Civil Twilight 6:47 AM CDT 8:00 PM CDT
Nautical Twilight 6:19 AM CDT 8:29 PM CDT
Astronomical Twilight 5:50 AM CDT 8:57 PM CDT
Moon 4:19 AM CDT (3/29) 3:33 PM CDT (3/29)
Length of Visible Light 13h 13m
Length of Day
12h 24m
Waning Crescent, 20% of the Moon is Illuminated
Mar 29
Waning Crescent
Apr 3
New
Apr 11
First Quarter
Apr 17
Full
Apr 24
Last Quarter

Hourly Weather History & Observations

Time (CDT) Temp. Dew Point Humidity Pressure Visibility Wind Dir Wind Speed Gust Speed Precip Events Conditions
12:53 AM 57.0 °F 46.9 °F 69% 29.92 in 10.0 mi East 6.9 mph - N/A   Overcast
1:53 AM 57.0 °F 46.9 °F 69% 29.91 in 10.0 mi East 6.9 mph - N/A   Overcast
2:18 AM 57.2 °F 48.2 °F 72% 29.92 in 10.0 mi ENE 5.8 mph - N/A   Overcast
2:53 AM 55.9 °F 46.9 °F 72% 29.91 in 10.0 mi ENE 9.2 mph - N/A   Overcast
3:53 AM 55.9 °F 46.9 °F 72% 29.90 in 10.0 mi East 6.9 mph - N/A   Overcast
4:53 AM 55.9 °F 48.0 °F 75% 29.91 in 10.0 mi East 6.9 mph - N/A   Overcast
5:53 AM 55.9 °F 48.0 °F 75% 29.91 in 10.0 mi ESE 5.8 mph - N/A   Overcast
6:53 AM 55.9 °F 48.0 °F 75% 29.93 in 10.0 mi East 5.8 mph - N/A   Overcast
7:04 AM 55.4 °F 48.2 °F 77% 29.93 in 10.0 mi East 4.6 mph - 0.00 in   Overcast
7:32 AM 55.4 °F 48.2 °F 77% 29.94 in 10.0 mi East 4.6 mph - 0.00 in   Overcast
7:53 AM 55.9 °F 48.9 °F 77% 29.94 in 10.0 mi East 4.6 mph - 0.00 in   Overcast
8:46 AM 55.4 °F 50.0 °F 82% 29.95 in 10.0 mi East 5.8 mph - 0.00 in   Overcast
8:53 AM 55.9 °F 51.1 °F 84% 29.95 in 10.0 mi ENE 4.6 mph - 0.00 in   Overcast
9:17 AM 57.2 °F 51.8 °F 82% 29.96 in 10.0 mi East 4.6 mph - N/A   Overcast
9:53 AM 59.0 °F 52.0 °F 78% 29.96 in 10.0 mi ESE 4.6 mph - N/A   Overcast
10:53 AM 60.1 °F 53.1 °F 78% 29.97 in 10.0 mi East 3.5 mph - N/A   Overcast
11:39 AM 64.4 °F 55.4 °F 73% 29.97 in 10.0 mi ENE 4.6 mph - N/A   Overcast
11:53 AM 64.9 °F 55.0 °F 70% 29.96 in 10.0 mi Calm Calm - N/A   Overcast
12:01 PM 64.4 °F 55.4 °F 73% 29.96 in 10.0 mi Variable 3.5 mph - N/A   Overcast
12:53 PM 66.9 °F 57.9 °F 73% 29.94 in 10.0 mi East 3.5 mph - N/A   Overcast
1:07 PM 66.2 °F 57.2 °F 73% 29.94 in 10.0 mi East 3.5 mph - N/A   Overcast
1:28 PM 68.0 °F 59.0 °F 73% 29.93 in 10.0 mi Calm Calm - N/A   Overcast
1:35 PM 68.0 °F 59.0 °F 73% 29.93 in 10.0 mi SE 4.6 mph - N/A   Overcast
1:53 PM 68.0 °F 60.1 °F 76% 29.91 in 10.0 mi ESE 5.8 mph - N/A   Overcast
2:19 PM 69.8 °F 60.8 °F 73% 29.91 in 10.0 mi Variable 3.5 mph - N/A   Overcast
2:31 PM 69.8 °F 60.8 °F 73% 29.91 in 10.0 mi ESE 4.6 mph - N/A   Overcast
2:53 PM 70.0 °F 60.1 °F 71% 29.90 in 10.0 mi East 4.6 mph - N/A   Overcast
3:03 PM 69.8 °F 60.8 °F 73% 29.91 in 8.0 mi Variable 3.5 mph - N/A   Overcast
3:29 PM 71.6 °F 62.6 °F 73% 29.89 in 10.0 mi ENE 3.5 mph - N/A   Mostly Cloudy
3:53 PM 73.0 °F 62.1 °F 68% 29.88 in 10.0 mi Variable 4.6 mph - N/A   Mostly Cloudy
4:53 PM 71.1 °F 62.1 °F 73% 29.87 in 10.0 mi ESE 4.6 mph - N/A   Overcast
5:53 PM 70.0 °F 62.1 °F 76% 29.86 in 10.0 mi East 5.8 mph - N/A   Overcast
6:53 PM 69.1 °F 62.1 °F 78% 29.87 in 10.0 mi North 3.5 mph - 0.00 in   Mostly Cloudy
7:04 PM 69.8 °F 62.6 °F 78% 29.88 in 10.0 mi North 3.5 mph - N/A   Overcast
7:53 PM 68.0 °F 62.1 °F 81% 29.89 in 10.0 mi NNW 4.6 mph - 0.00 in Rain Light Rain
8:53 PM 64.9 °F 59.0 °F 81% 29.91 in 10.0 mi NW 8.1 mph - 0.00 in   Overcast
9:19 PM 64.4 °F 59.0 °F 83% 29.93 in 10.0 mi NNW 9.2 mph 17.3 mph N/A   Overcast
9:53 PM 63.0 °F 57.9 °F 84% 29.94 in 10.0 mi NNW 8.1 mph 16.1 mph N/A   Overcast
10:53 PM 59.0 °F 55.9 °F 90% 29.95 in 6.0 mi North 10.4 mph 19.6 mph 0.00 in   Overcast
11:00 PM 59.0 °F 55.4 °F 88% 29.97 in 6.0 mi NNW 8.1 mph 19.6 mph N/A   Overcast
11:18 PM 57.2 °F 53.6 °F 88% 29.96 in 6.0 mi North 12.7 mph 20.7 mph N/A   Overcast
11:51 PM 57.2 °F 53.6 °F 88% 29.96 in 5.0 mi NNW 8.1 mph - N/A   Overcast
11:53 PM 55.9 °F 53.1 °F 90% 29.96 in 5.0 mi NNW 9.2 mph - N/A   Overcast